Dewpoint
58 57 56 56 56 56 56 55 55 56 56 56 56 57 57 57 58 58 59 60 60 59 58 58 57 58 58 59 60 61 62 60 59 57 54 55 61 64 64 65 63 61 59 56 52 46 45 43 45 42 39 38 43 39 45 42 42 39 36 36 36 36 35 36 35 33 30 26 32 32 36 40 38 35 37 43 42 46 49 48 50 52 53 54 56 58 58 59
57 57 58 58 57 57 55 56 56 55 56 57 57 57 57 57 57 58 58 60 60 60 60 59 58 59 58 57 60 62 58 58 56 56 54 58 63 64 63 61 62 62 60 59 53 48 47 48 45 39 40 37 49 39 41 39 42 36 36 37 36 37 34 32 33 33 29 30 29 32 33 38 37 36 39 37 38 41 44 47 49 49 51 55 57 58 58 59
57 57 58 57 57 57 56 56 56 55 56 57 57 57 58 58 58 59 59 59 60 60 60 60 60 60 58 58 58 62 58 55 53 51 53 61 63 62 61 61 60 62 59 59 55 51 46 48 44 40 41 39 40 37 41 37 38 36 36 36 37 37 32 31 31 31 29 27 27 31 32 34 34 35 41 37 36 42 38 38 47 47 47 52 56 57 58 59
58 57 57 57 57 57 56 55 55 55 55 56 57 58 58 58 59 59 59 59 60 60 60 60 60 60 59 58 58 58 55 49 47 50 51 60 63 62 62 62 61 61 60 58 56 52 53 50 45 41 42 39 43 41 38 40 36 37 34 35 37 33 34 31 32 31 28 28 27 29 32 33 34 35 39 36 37 39 38 37 39 42 45 48 57 57 58 58
57 56 58 57 57 57 57 57 57 56 55 55 57 57 58 58 59 59 59 59 60 60 61 61 60 60 58 59 60 54 48 44 44 48 52 60 62 63 63 62 62 62 60 57 55 53 52 52 53 48 38 36 41 39 35 38 38 38 35 37 37 36 34 35 32 30 29 28 29 31 31 32 34 36 38 37 32 31 35 38 40 37 40 50 56 57 58 58
56 56 58 58 57 57 57 56 57 55 56 55 56 57 58 58 59 59 59 59 59 60 60 61 60 59 58 60 55 51 44 38 57 51 57 62 62 63 63 62 63 61 60 57 56 52 51 47 48 47 40 36 37 36 35 36 38 35 36 37 36 34 34 26 29 27 28 28 28 30 31 33 33 33 36 37 34 33 39 40 41 40 44 51 56 57 57 58
56 55 57 57 57 57 57 57 56 56 56 54 55 57 58 58 59 59 59 59 59 60 60 61 60 59 57 59 55 49 43 42 58 59 59 64 64 65 63 63 62 60 59 57 55 51 51 49 45 40 38 37 37 36 37 35 38 36 36 36 36 32 33 23 23 24 26 27 27 30 32 31 32 32 34 37 37 34 34 31 34 42 48 55 56 57 57 57
55 56 57 57 57 57 57 57 56 56 56 56 54 55 58 58 59 59 59 59 59 60 60 60 60 59 59 55 53 45 43 41 46 62 63 62 63 63 64 62 60 59 58 57 54 52 51 51 43 44 40 38 40 37 37 36 37 35 35 37 33 32 28 23 23 22 24 26 28 29 30 30 32 31 33 35 36 35 32 36 44 46 49 52 54 57 57 57
56 56 55 56 56 56 57 57 57 56 56 55 54 55 56 58 59 59 58 58 59 59 60 60 60 59 59 53 49 44 42 45 62 63 62 62 62 64 62 60 60 58 58 57 55 54 50 49 48 46 42 39 42 36 39 35 35 36 36 37 33 32 27 23 24 23 23 26 28 28 28 29 30 30 28 30 33 37 32 43 48 51 51 52 53 55 57 57
55 56 56 55 56 56 57 56 56 56 56 56 55 55 55 56 58 59 58 58 59 59 60 60 60 59 57 54 49 42 48 49 61 62 63 62 61 60 60 59 59 58 57 56 55 52 50 52 51 53 50 50 45 38 40 36 37 37 37 38 36 31 26 26 23 24 24 26 27 26 27 28 31 31 28 30 30 34 34 36 51 48 45 51 53 54 56 56
55 55 55 55 56 56 57 56 57 57 56 56 55 55 55 57 58 58 58 58 59 59 60 60 60 58 55 53 47 41 52 49 53 62 62 61 59 58 59 59 58 56 55 54 54 54 52 54 54 54 49 50 46 41 42 39 43 39 38 37 36 29 30 28 26 26 26 25 28 27 27 30 30 30 28 28 32 32 33 36 45 48 44 47 52 54 56 56
55 55 56 56 56 56 56 57 57 57 56 56 55 54 55 55 58 58 58 58 58 59 60 60 60 58 55 52 48 45 55 57 62 61 61 61 59 60 60 59 57 55 53 51 53 53 54 53 53 52 48 54 48 46 43 44 43 39 38 37 37 37 32 28 23 26 28 24 30 29 27 26 30 27 29 29 32 35 31 35 45 48 46 47 51 53 55 55
54 55 56 56 55 55 55 56 57 56 56 56 56 55 56 55 58 58 58 57 58 59 59 60 59 58 54 45 48 53 59 55 62 61 61 60 59 59 59 57 55 54 53 52 52 54 55 54 52 51 52 52 51 47 49 48 43 40 39 39 38 38 37 36 29 30 27 24 30 28 28 29 25 29 29 30 32 34 31 31 39 45 48 48 51 53 54 54
54 55 55 55 55 55 55 56 57 57 56 56 56 55 55 56 57 58 57 56 58 59 59 59 59 56 52 47 55 57 60 56 59 61 60 58 57 57 56 56 54 54 56 54 55 55 54 55 54 51 53 51 50 54 47 45 44 43 43 41 40 39 39 39 31 28 25 29 29 28 30 32 32 27 29 30 32 32 29 29 30 38 45 48 51 52 53 54
53 54 55 55 54 55 55 55 57 57 56 56 55 55 56 57 57 57 58 57 58 59 59 58 57 53 47 46 56 56 59 55 55 58 60 57 56 55 55 56 56 56 56 56 56 56 55 54 52 50 51 53 52 49 49 49 50 47 41 40 41 40 40 41 40 30 27 32 31 27 28 30 31 27 28 29 32 31 29 29 29 31 38 42 47 49 51 52
53 54 55 55 55 55 56 56 56 56 56 56 55 55 56 57 56 56 57 56 58 58 59 55 53 51 46 44 47 59 56 52 52 59 58 57 55 54 56 56 55 55 55 55 57 56 55 53 51 51 51 50 50 49 47 47 47 45 41 41 41 41 41 41 41 36 34 32 32 28 31 33 33 32 32 33 31 31 30 28 29 29 31 37 42 46 48 51
53 53 54 55 54 54 55 55 55 56 56 55 55 55 56 56 56 56 56 57 55 58 55 49 52 51 40 49 54 51 51 53 53 56 57 56 56 56 55 54 54 54 56 55 55 53 52 51 51 50 50 49 50 49 44 42 42 43 44 42 42 41 41 40 40 39 39 35 31 31 30 33 34 35 34 33 34 32 30 29 29 30 30 32 37 42 45 47
54 53 55 54 54 55 55 55 55 55 56 55 55 54 53 55 55 54 54 56 55 56 55 56 52 45 41 49 44 46 52 53 51 53 56 55 57 55 54 54 54 53 53 52 53 51 52 49 50 45 48 47 48 46 41 38 41 42 41 42 41 41 41 40 40 39 39 37 37 34 31 33 37 35 34 35 34 35 33 31 30 30 31 32 33 35 39 43
54 53 54 54 54 54 54 55 55 54 55 55 55 54 54 53 53 53 51 51 49 45 38 42 44 33 29 38 46 50 52 54 53 52 53 55 56 55 55 55 54 51 49 49 48 49 50 48 48 43 40 43 43 45 44 46 44 42 41 41 42 40 41 41 41 39 40 38 38 39 36 36 37 38 36 36 34 35 35 36 37 36 36 35 34 35 36 41
53 53 53 54 54 54 54 54 55 55 55 53 53 50 48 45 44 45 48 48 42 41 36 42 46 39 41 43 43 53 57 56 51 50 54 56 54 54 54 54 52 52 48 44 47 48 48 42 39 37 39 43 43 46 47 47 47 46 43 42 41 41 41 41 42 40 39 39 39 40 39 39 40 38 38 39 37 36 36 36 36 37 37 37 37 36 37 39
53 54 54 54 54 54 54 55 55 55 55 53 51 47 41 41 37 37 43 45 42 42 38 42 45 40 47 51 45 50 50 50 52 51 53 55 53 50 49 51 48 44 45 46 46 49 46 40 40 41 42 42 44 45 47 48 47 45 43 42 42 42 39 41 41 39 38 39 40 39 39 40 40 40 39 39 39 37 37 37 37 37 37 38 38 39 39 38
52 53 53 54 53 53 54 54 54 55 54 52 49 46 45 43 45 45 43 37 43 43 42 45 46 44 46 48 54 50 52 49 50 53 56 53 52 44 48 46 44 40 44 48 48 44 42 38 41 43 45 45 45 45 46 46 45 46 43 43 42 41 42 39 39 35 38 39 39 39 37 39 39 40 40 40 40 40 40 40 40 39 40 39 39 40 41 41
52 53 54 54 53 54 54 54 54 53 51 49 47 45 44 46 47 45 42 38 38 44 44 43 42 41 42 49 52 54 48 46 47 49 53 52 50 44 47 44 41 40 44 45 40 41 38 40 41 44 45 45 45 44 44 45 45 46 46 43 41 43 41 40 38 32 37 39 38 33 35 37 38 39 39 40 40 40 41 41 41 41 41 41 41 41 42 42
52 52 53 53 53 54 54 54 54 52 49 48 46 44 46 45 46 41 35 33 33 41 43 43 43 43 41 41 50 50 47 46 48 48 54 52 47 46 47 43 40 39 41 43 40 40 38 41 44 43 44 44 44 45 44 43 42 44 46 44 42 42 42 41 38 34 35 36 36 36 38 38 39 38 39 39 39 39 40 40 40 42 43 43 44 44 43 41
51 52 53 52 52 53 54 54 51 49 48 47 46 45 45 46 44 41 32 35 31 35 43 42 44 44 46 52 52 47 46 49 49 50 53 52 47 46 45 45 40 36 41 43 41 40 38 43 44 43 43 44 43 43 44 43 41 43 45 45 42 43 42 36 33 35 37 37 37 38 36 35 36 37 38 37 38 38 39 39 39 40 41 42 41 42 44 45
52 52 53 52 53 54 55 49 48 49 47 45 45 44 45 45 43 42 32 26 20 34 38 34 42 36 49 47 49 47 47 44 49 51 52 52 50 45 46 43 41 37 39 41 41 42 39 44 43 42 43 43 43 42 43 45 42 41 44 45 43 42 41 37 34 39 36 35 35 36 35 32 35 37 38 38 39 39 39 39 39 38 39 39 41 42 41 42
52 52 53 52 53 53 49 44 49 48 45 45 46 45 45 45 44 41 23 22 18 35 33 37 33 36 43 44 47 43 34 38 53 53 52 53 49 53 43 43 42 42 42 44 41 39 42 43 43 44 43 43 42 41 42 45 42 39 44 45 43 42 40 39 37 39 38 39 37 33 36 35 34 35 37 38 37 37 38 39 39 39 38 38 38 39 41 41
51 53 53 53 52 52 48 50 47 46 45 47 46 44 47 47 46 39 23 14 11 37 33 35 34 47 38 49 47 38 42 48 42 48 51 52 52 48 45 42 39 40 42 41 32 41 40 43 42 42 43 43 42 42 43 45 43 44 45 44 41 41 41 40 39 39 39 39 37 34 36 34 34 36 36 36 36 37 37 37 38 39 39 38 39 39 39 40
52 53 53 53 52 52 52 49 47 45 49 48 44 45 46 45 37 25 21 12 34 28 45 36 47 39 42 48 45 40 39 48 39 46 52 52 52 48 43 43 41 41 42 40 35 43 43 43 43 42 42 41 43 44 45 45 43 44 43 43 41 41 42 40 40 40 40 38 35 36 35 35 34 36 36 34 36 36 36 37 37 38 39 40 39 39 39 39
51 52 53 53 52 51 50 50 48 49 49 48 47 45 44 35 26 19 15 10 24 19 33 39 35 35 44 40 40 42 39 44 46 50 50 47 48 49 46 46 42 42 42 43 42 44 46 49 45 43 41 42 42 45 45 46 46 45 43 41 41 41 41 42 42 42 37 34 36 37 35 36 33 35 34 36 36 36 35 36 37 39 40 39 41 42 42 39
51 53 52 52 49 49 49 46 48 49 49 47 44 44 41 33 22 16 11 15 30 37 38 38 33 39 40 36 34 42 40 42 44 48 45 48 44 47 45 44 47 43 42 42 41 43 44 45 44 46 47 44 43 44 45 46 45 44 41 41 42 40 42 41 39 41 34 33 37 38 36 36 32 34 36 35 35 36 35 35 36 37 37 38 40 39 37 37
51 52 52 52 51 50 47 45 48 48 48 44 42 40 35 25 26 15 13 27 17 29 33 34 37 37 37 35 34 38 37 40 44 45 43 43 41 40 41 37 41 34 33 35 35 42 40 42 45 45 46 43 44 43 43 44 44 44 43 43 37 33 35 32 34 32 33 32 35 33 37 35 33 34 33 36 36 36 36 36 36 36 36 39 41 41 40 41
51 52 52 51 51 48 48 50 50 48 45 42 39 37 28 22 15 20 23 21 15 34 31 35 36 36 36 35 32 36 38 36 42 44 43 43 42 41 43 40 40 39 31 36 35 36 38 43 44 44 46 47 45 41 39 38 42 43 41 40 35 32 31 29 32 33 33 35 34 34 37 33 34 34 36 35 36 37 37 37 38 38 37 38 40 43 40 43
51 52 51 51 49 49 50 49 48 46 42 39 37 32 26 19 17 24 23 21 25 35 36 34 35 36 35 30 31 37 34 38 40 40 41 38 40 38 40 42 40 38 36 37 34 35 30 31 39 43 40 47 46 44 42 41 42 43 44 43 37 33 31 28 29 29 30 30 33 35 32 31 32 30 34 35 36 36 35 35 39 40 40 40 40 41 40 40
51 51 50 50 49 50 49 48 47 44 41 38 36 28 20 18 20 20 20 21 27 37 35 36 34 34 34 31 33 36 33 32 39 39 40 39 34 39 38 39 42 38 39 34 36 35 33 32 42 43 45 46 44 46 44 42 42 44 45 47 39 34 38 29 29 30 30 29 31 31 31 33 31 34 36 36 36 35 35 36 37 36 37 38 39 40 40 39
50 50 50 47 48 49 49 48 45 44 39 36 30 25 21 21 19 23 21 26 33 35 34 35 34 31 30 29 33 35 38 34 37 38 38 39 38 36 40 40 41 39 36 32 35 32 35 32 41 42 45 45 44 46 44 43 35 41 42 38 40 42 36 31 31 30 33 30 29 32 32 33 33 33 33 34 33 34 35 36 36 37 38 38 39 40 39 39
48 48 45 47 47 49 48 47 44 40 37 34 27 22 25 23 30 23 26 26 35 36 33 30 31 28 29 27 28 33 35 37 37 37 33 39 37 38 39 41 41 39 37 34 36 39 30 30 41 39 41 45 46 46 44 44 45 44 38 40 42 42 41 33 28 29 28 26 27 31 30 30 31 28 30 33 32 32 32 34 35 37 39 38 40 42 43 43
46 46 45 45 48 48 48 47 46 40 36 32 26 26 28 23 32 26 29 29 38 37 34 31 31 31 29 27 27 32 36 28 35 36 33 37 34 40 38 40 41 39 37 39 34 36 36 33 39 40 39 44 46 46 44 44 43 44 41 43 37 34 33 37 31 28 27 26 26 29 30 30 31 30 25 29 32 31 32 34 34 34 35 37 40 41 40 39
46 44 40 45 49 49 47 46 44 39 36 29 25 24 28 25 38 34 29 31 38 37 32 32 29 30 30 27 28 31 34 26 35 34 31 36 31 39 38 40 41 40 38 40 33 41 37 31 37 42 41 44 45 45 36 41 44 44 45 43 42 39 34 33 32 32 28 27 27 27 27 27 34 31 30 28 28 33 32 33 34 34 33 33 36 39 39 41
43 39 38 47 49 49 48 45 41 40 34 25 26 26 28 26 35 39 38 32 36 36 33 32 32 29 31 29 30 29 34 29 33 35 31 38 32 39 36 40 41 40 38 37 39 41 34 40 33 39 44 44 38 42 40 41 39 40 42 41 39 37 39 37 36 32 29 27 26 25 25 26 32 31 30 29 29 28 32 33 36 36 36 36 37 39 40 39
43 37 37 47 48 48 47 44 37 33 29 30 29 29 29 28 36 36 37 38 39 41 35 34 34 29 30 29 29 31 32 31 32 33 34 37 33 35 38 38 40 41 38 39 41 39 34 36 30 37 37 38 40 44 42 41 42 42 42 40 39 37 34 32 32 36 32 29 27 25 25 28 31 34 30 29 29 31 32 35 35 36 35 37 41 39 38 40
38 32 36 47 47 47 43 34 32 36 32 28 27 29 29 36 31 35 37 36 39 38 39 35 35 33 32 30 30 32 32 31 30 32 35 34 36 36 39 39 38 41 41 39 37 40 37 39 35 35 38 39 41 43 44 43 42 43 42 40 41 38 37 33 30 32 33 32 31 29 28 28 31 33 34 33 33 33 35 37 36 37 38 37 36 37 37 37
37 34 44 46 47 44 39 32 34 32 31 31 34 34 39 32 30 36 35 37 36 37 37 35 29 32 33 33 31 31 32 32 31 30 34 35 36 37 41 39 39 40 41 39 39 42 40 34 35 37 40 41 43 42 45 44 43 41 42 41 41 37 36 34 33 32 32 32 30 30 29 29 32 34 35 35 35 37 37 35 36 35 34 34 35 38 37 38
38 38 41 46 45 44 37 28 29 30 30 33 31 29 38 36 32 33 32 36 34 36 35 34 30 36 33 39 31 30 33 30 33 31 32 36 36 41 40 40 40 42 40 39 37 42 33 36 35 33 33 35 37 41 41 42 43 40 40 40 42 41 39 37 34 31 30 32 31 29 28 29 33 33 32 31 30 31 31 32 34 36 36 36 35 36 35 35
39 41 41 43 46 43 33 33 30 29 30 30 30 31 34 35 37 33 30 34 38 35 35 35 34 33 31 36 35 32 34 31 31 33 34 34 35 43 42 40 40 40 40 42 39 42 35 36 34 32 29 27 27 28 31 34 38 41 41 40 40 40 39 36 31 30 28 30 31 29 28 30 30 30 29 28 29 29 30 29 28 33 34 33 36 37 34 34
36 30 35 38 41 40 39 39 34 31 30 30 29 30 33 31 36 38 35 35 36 36 36 36 36 36 33 32 32 31 32 35 34 32 32 36 40 42 44 41 42 42 40 41 44 45 35 40 36 34 32 30 32 35 39 41 40 38 39 40 39 40 39 39 35 31 29 30 28 30 30 31 29 29 31 31 31 29 30 32 27 29 29 32 33 35 36 36
38 31 32 30 36 37 35 36 34 32 29 30 26 31 30 31 34 35 37 31 35 37 35 35 35 33 33 31 31 30 32 32 35 37 33 35 39 42 44 43 41 40 40 42 44 41 34 34 37 36 35 35 36 37 39 40 39 39 39 39 40 40 39 37 34 32 33 31 27 31 33 33 30 29 30 31 31 28 31 32 32 30 33 36 38 35 32 28
31 34 37 35 30 29 31 32 33 32 32 29 28 30 30 30 32 31 35 37 36 36 33 35 33 37 34 31 32 30 31 31 32 32 35 35 42 43 42 43 42 41 40 43 45 41 37 33 37 38 35 36 37 40 39 38 38 39 39 39 39 39 39 36 35 36 35 31 29 31 35 33 31 31 31 31 31 28 27 27 29 28 30 33 32 31 33 35
35 36 36 37 30 33 33 33 34 32 31 30 32 30 29 29 30 32 32 34 35 34 35 29 33 35 35 35 34 30 30 29 29 34 34 35 37 39 40 42 43 44 42 41 43 42 39 34 37 38 36 36 36 39 40 38 38 38 39 39 40 39 39 38 37 37 37 35 34 33 35 33 32 32 31 31 31 31 27 28 27 27 27 30 31 31 32 34
33 33 32 37 36 34 32 33 33 33 31 30 28 30 30 29 29 32 36 35 32 34 34 30 31 36 36 36 33 29 32 33 32 31 36 35 36 39 40 40 40 42 43 41 42 42 40 33 37 37 35 35 37 38 38 39 38 38 38 39 39 39 39 39 39 39 38 36 35 35 35 34 33 33 33 34 33 34 32 29 25 28 31 30 31 32 34 34
40 40 36 33 31 34 31 32 32 31 30 31 27 30 30 30 30 32 33 37 34 33 34 29 32 37 37 34 35 32 32 33 35 38 39 38 36 41 36 38 42 39 41 39 40 41 41 35 39 37 33 33 36 36 36 38 38 38 38 38 39 39 38 39 39 39 38 36 37 37 36 34 34 35 34 35 34 32 30 32 33 32 30 30 32 32 35 36
42 41 40 35 31 34 30 31 31 32 27 30 30 30 29 30 31 33 31 36 36 37 36 35 37 36 35 34 32 35 40 36 34 38 42 42 42 42 43 44 41 40 39 39 41 37 39 36 34 34 32 32 35 36 35 35 33 32 35 37 38 39 39 40 40 40 39 38 37 35 34 36 36 36 35 34 33 33 32 31 33 35 34 33 32 33 35 36